Language: 


Des rapports , des résumés tant et plus, au choix de chacun....


Données Historiques de Météogheer
Journalier Rapport pour Octobre 22, 2017 Unitée:  Impériale    Métrique   Les deux
Suivant Jour »
Journalier Hebdomadaire Mensuel Annuel Sur mesure
  Max: Min: Moyenne:
Température: 56.5 °F 32 °F 46.4 °F
Point de rosée: 50 °F 44.6 °F 48 °F
Humidité: 95% 0% 60%
Vent: 19.5mph 0mph 7.6mph
Rafales: 22.1mph - -
Vent- - WSW
Pression: 30 in 29.7 in -
Pluie: 0.46 in    
Historical Graphs
 
 
Données tabulaires pour Octobre 22, 2017
Heure Température Point de rosée Pression Vent Vent Rafales Humidité Pluie Taux (Horaire) Conditions
00:03 52.9 °F 48.2 °F 29.8 in SSW 11.4 mph 17.7 mph 81% 0 in
00:08 52.9 °F 48.2 °F 29.8 in SW 9.2 mph 17.7 mph 81% 0 in
00:12 52.9 °F 48.2 °F 29.8 in South 12.3 mph 17 mph 81% 0 in
00:17 52.9 °F 48.2 °F 29.8 in SW 16.1 mph 16.1 mph 81% 0 in
00:22 52.9 °F 48.2 °F 29.8 in SSW 13 mph 17.2 mph 81% 0 in
00:27 52.9 °F 48.2 °F 29.8 in SSW 10.7 mph 19.2 mph 81% 0 in
00:32 52.9 °F 48.2 °F 29.8 in SSW 13 mph 19.2 mph 81% 0 in
00:37 52.9 °F 48.2 °F 29.8 in SSW 16.8 mph 17.7 mph 81% 0 in
00:42 52.9 °F 48.2 °F 29.8 in SSW 19.2 mph 19.2 mph 81% 0 in
00:47 52.9 °F 48.2 °F 29.8 in SW 13 mph 19.2 mph 81% 0 in
00:52 52.9 °F 48.2 °F 29.8 in West 10.5 mph 22.1 mph 81% 0 in
00:57 52.9 °F 48.2 °F 29.8 in SSW 10.5 mph 22.1 mph 81% 0 in
01:02 52.9 °F 48.2 °F 29.7 in SW 13 mph 17.4 mph 81% 0 in
01:07 52.9 °F 48.2 °F 29.7 in SW 11 mph 17.4 mph 81% 0 in
01:12 52.9 °F 48.2 °F 29.7 in SSW 9.8 mph 17.4 mph 81% 0 in
01:17 52.9 °F 48.2 °F 29.7 in SW 11 mph 17.4 mph 81% 0 in
01:22 52.9 °F 48.2 °F 29.7 in SW 12.8 mph 15.2 mph 81% 0 in
01:28 52.9 °F 48.2 °F 29.7 in SW 12.8 mph 15.2 mph 81% 0.01 in
01:33 52.9 °F 48.2 °F 29.7 in SW 12.8 mph 15.2 mph 81% 0.03 in
01:38 52.9 °F 48.2 °F 29.7 in SSW 11.9 mph 12.5 mph 81% 0.05 in
01:43 52.9 °F 48.2 °F 29.7 in SW 17.2 mph 17.2 mph 81% 0.05 in
01:48 52.9 °F 48.2 °F 29.7 in SW 17.2 mph 17.2 mph 81% 0.06 in
01:53 52.9 °F 48.2 °F 29.7 in SSW 9.4 mph 17.2 mph 81% 0.09 in
01:58 52.9 °F 48.2 °F 29.7 in SW 8.7 mph 13 mph 81% 0.1 in
02:03 52.9 °F 48.2 °F 29.7 in WSW 11.9 mph 12.3 mph 81% 0.13 in
02:08 52.9 °F 48.2 °F 29.7 in WSW 10.7 mph 12.5 mph 81% 0.15 in
02:13 52.9 °F 48.2 °F 29.7 in SW 14.1 mph 19.7 mph 81% 0.18 in
02:18 52.9 °F 48.2 °F 29.7 in SW 10.3 mph 19.7 mph 81% 0.2 in
02:23 52.9 °F 48.2 °F 29.7 in WSW 7.4 mph 14.5 mph 81% 0.22 in
02:28 52.9 °F 48.2 °F 29.7 in South 10.7 mph 14.8 mph 81% 0.22 in
02:38 52.9 °F 48.2 °F 29.7 in SW 13.2 mph 14.5 mph 81% 0.23 in
02:43 52.9 °F 48.2 °F 29.7 in SW 17.2 mph 17.2 mph 81% 0.26 in
02:48 52.9 °F 48.2 °F 29.7 in WSW 12.5 mph 17.2 mph 81% 0.27 in
02:53 52.9 °F 48.2 °F 29.7 in West 8.9 mph 15.7 mph 81% 0.25 in
02:58 52.9 °F 48.2 °F 29.7 in WSW 13.2 mph 13.2 mph 81% 0.25 in
03:03 32 °F 48.2 °F 29.7 in SW 15.2 mph 15.2 mph 0% 0.25 in
03:09 32 °F 48.2 °F 29.7 in SW 10.3 mph 17 mph 0% 0.25 in
03:14 32 °F 48.2 °F 29.7 in SW 12.5 mph 17 mph 0% 0.25 in
03:19 32 °F 48.2 °F 29.8 in SW 10.5 mph 13.2 mph 0% 0.25 in
03:24 32 °F 48.2 °F 29.8 in SW 10.5 mph 12.8 mph 0% 0.25 in
03:29 32 °F 48.2 °F 29.8 in WSW 13 mph 13 mph 0% 0.25 in
03:34 32 °F 48.2 °F 29.7 in SSW 12.8 mph 13 mph 0% 0.25 in
03:39 32 °F 48.2 °F 29.7 in WSW 15.4 mph 15.4 mph 0% 0.25 in
03:44 32 °F 48.2 °F 29.7 in SSW 10.1 mph 16.8 mph 0% 0.25 in
03:49 32 °F 48.2 °F 29.7 in SW 7.6 mph 13.2 mph 0% 0.25 in
03:54 32 °F 48.2 °F 29.7 in SSW 10.5 mph 13.2 mph 0% 0.25 in
03:59 32 °F 48.2 °F 29.7 in SW 9.4 mph 14.8 mph 0% 0.25 in
04:04 32 °F 48.2 °F 29.7 in SSW 11 mph 14.8 mph 0% 0.25 in
04:14 32 °F 48.2 °F 29.7 in SSW 12.5 mph 16.3 mph 0% 0.25 in
04:19 32 °F 48.2 °F 29.7 in SSW 8.1 mph 16.3 mph 0% 0.25 in
04:24 32 °F 48.2 °F 29.7 in SSW 8.7 mph 15.2 mph 0% 0.25 in
04:29 32 °F 48.2 °F 29.7 in WSW 7.6 mph 15.2 mph 0% 0.25 in
04:35 32 °F 48.2 °F 29.8 in SSW 9.2 mph 13 mph 0% 0.25 in
04:40 32 °F 48.2 °F 29.8 in SSW 12.8 mph 13 mph 0% 0.25 in
04:45 32 °F 48.2 °F 29.8 in SW 10.5 mph 12.8 mph 0% 0.25 in
04:50 32 °F 48.2 °F 29.8 in SSW 12.1 mph 12.8 mph 0% 0.25 in
04:55 32 °F 48.2 °F 29.8 in South 8.1 mph 12.5 mph 0% 0.25 in
05:00 32 °F 48.2 °F 29.8 in WSW 6.5 mph 11 mph 0% 0.25 in
05:05 32 °F 48.2 °F 29.8 in SW 4.9 mph 11 mph 0% 0.25 in
05:10 32 °F 48.2 °F 29.8 in SSW 12.5 mph 12.5 mph 0% 0.25 in
05:16 32 °F 48.2 °F 29.7 in SSW 15.9 mph 15.9 mph 0% 0.25 in
05:21 32 °F 48.2 °F 29.7 in SW 10.3 mph 15.9 mph 0% 0.25 in
05:24 32 °F 48.2 °F 29.7 in SW 10.7 mph 15.9 mph 0% 0.25 in
05:25 32 °F 48.2 °F 29.7 in SSW 9.8 mph 15.9 mph 0% 0.25 in
05:26 32 °F 48.2 °F 29.7 in SSW 11 mph 11 mph 0% 0.25 in
05:28 32 °F 48.2 °F 29.7 in SSW 9.6 mph 11 mph 0% 0.25 in
05:31 32 °F 48.2 °F 29.8 in SSW 8.5 mph 12.3 mph 0% 0.25 in
05:41 32 °F 48.2 °F 29.8 in WSW 6.9 mph 14.5 mph 0% 0.25 in
05:46 32 °F 48.2 °F 29.8 in SW 10.1 mph 13.2 mph 0% 0.25 in
05:48 32 °F 48.2 °F 29.8 in SSW 8.5 mph 13.2 mph 0% 0.25 in
05:53 32 °F 48.2 °F 29.8 in SSW 17 mph 17 mph 0% 0.25 in
05:58 32 °F 48.2 °F 29.8 in SW 11 mph 17 mph 0% 0.25 in
06:03 32 °F 48.2 °F 29.8 in SW 10.1 mph 13.9 mph 0% 0.25 in
06:08 32 °F 48.2 °F 29.8 in SSW 9.2 mph 11 mph 0% 0.25 in
06:13 32 °F 48.2 °F 29.8 in SW 7.6 mph 10.5 mph 0% 0.25 in
06:19 32 °F 48.2 °F 29.8 in SSW 11.9 mph 12.1 mph 0% 0.25 in
06:24 32 °F 48.2 °F 29.8 in SSW 7.6 mph 12.8 mph 0% 0.25 in
06:29 32 °F 48.2 °F 29.8 in WSW 7.8 mph 12.8 mph 0% 0.25 in
06:34 32 °F 48.2 °F 29.8 in SSW 8.5 mph 11 mph 0% 0.25 in
06:39 32 °F 48.2 °F 29.8 in SW 8.1 mph 10.5 mph 0% 0.25 in
06:44 32 °F 48.2 °F 29.8 in WSW 6.5 mph 10.5 mph 0% 0.25 in
06:49 32 °F 48.2 °F 29.8 in SSW 5.4 mph 8.7 mph 0% 0.25 in
06:54 32 °F 48.2 °F 29.8 in SSW 6.3 mph 8.7 mph 0% 0.25 in
06:59 32 °F 48.2 °F 29.8 in SSW 7.6 mph 10.7 mph 0% 0.25 in
07:04 32 °F 48.2 °F 29.8 in SW 7.4 mph 10.7 mph 0% 0.25 in
07:09 32 °F 48.2 °F 29.8 in SW 7.4 mph 10.7 mph 0% 0.25 in
07:14 32 °F 48.2 °F 29.8 in WSW 7.2 mph 9.2 mph 0% 0.25 in
07:19 32 °F 48.2 °F 29.8 in SW 6 mph 8.9 mph 0% 0.25 in
07:24 32 °F 48.2 °F 29.8 in WSW 9.8 mph 9.8 mph 0% 0.25 in
07:29 32 °F 48.2 °F 29.8 in WSW 5.8 mph 9.8 mph 0% 0.25 in
07:34 32 °F 48.2 °F 29.8 in SW 7.2 mph 8.7 mph 0% 0.25 in
07:39 32 °F 48.2 °F 29.8 in WSW 11.9 mph 11.9 mph 0% 0.25 in
07:44 32 °F 48.2 °F 29.8 in WSW 7.8 mph 11.9 mph 0% 0.25 in
07:49 32 °F 48.2 °F 29.8 in SW 5.8 mph 10.1 mph 0% 0.25 in
07:54 32 °F 48.2 °F 29.8 in WSW 5.6 mph 7.8 mph 0% 0.25 in
07:59 32 °F 48.2 °F 29.8 in WSW 7.4 mph 9.2 mph 0% 0.25 in
08:04 32 °F 48.2 °F 29.8 in WSW 6.3 mph 10.7 mph 0% 0.25 in
08:10 32 °F 48.2 °F 29.8 in WSW 7.8 mph 10.7 mph 0% 0.25 in
08:15 32 °F 48.2 °F 29.8 in WSW 6.3 mph 9.8 mph 0% 0.25 in
08:20 32 °F 48.2 °F 29.8 in WSW 5.4 mph 10.1 mph 0% 0.25 in
08:25 32 °F 48.2 °F 29.8 in West 7.8 mph 11.4 mph 0% 0.25 in
08:30 32 °F 48.2 °F 29.8 in WSW 8.7 mph 11.4 mph 0% 0.25 in
08:35 32 °F 48.2 °F 29.8 in WSW 7.2 mph 10.3 mph 0% 0.25 in
08:40 32 °F 48.2 °F 29.8 in WSW 10.5 mph 10.5 mph 0% 0.25 in
08:45 32 °F 48.2 °F 29.8 in West 7.6 mph 10.5 mph 0% 0.25 in
08:50 32 °F 48.2 °F 29.9 in West 11 mph 11 mph 0% 0.25 in
08:55 32 °F 48.2 °F 29.9 in West 5.6 mph 11 mph 0% 0.25 in
09:00 32 °F 48.2 °F 29.9 in West 8.7 mph 10.7 mph 0% 0.25 in
09:05 32 °F 48.2 °F 29.9 in SSW 5.6 mph 10.7 mph 0% 0.25 in
09:10 32 °F 48.2 °F 29.9 in West 7.8 mph 9.8 mph 0% 0.25 in
09:15 32 °F 48.2 °F 29.9 in WSW 8.7 mph 10.3 mph 0% 0.25 in
09:20 32 °F 48.2 °F 29.9 in West 6 mph 10.3 mph 0% 0.25 in
09:25 32 °F 48.2 °F 29.9 in WSW 7.6 mph 7.8 mph 0% 0.25 in
09:30 32 °F 48.2 °F 29.9 in WSW 5.8 mph 7.8 mph 0% 0.25 in
09:35 32 °F 48.2 °F 29.9 in WSW 6.5 mph 7.8 mph 0% 0.25 in
09:40 32 °F 48.2 °F 29.9 in WSW 5.6 mph 8.7 mph 0% 0.25 in
09:45 32 °F 48.2 °F 29.9 in WSW 7.4 mph 8.7 mph 0% 0.25 in
09:50 51.8 °F 50 °F 29.9 in WSW 7.4 mph 8.7 mph 95% 0 in
09:56 52.2 °F 50 °F 29.9 in WSW 7.4 mph 7.4 mph 94% 0 in
10:01 52.3 °F 50 °F 29.9 in WSW 7.4 mph 7.4 mph 94% 0 in
10:06 52.3 °F 50 °F 29.9 in WSW 7.4 mph 7.4 mph 94% 0 in
10:11 52.3 °F 50 °F 29.9 in WSW 7.4 mph 7.4 mph 94% 0 in
10:16 52.3 °F 50 °F 29.9 in WSW 7.4 mph 7.4 mph 94% 0 in
10:21 52.3 °F 50 °F 29.9 in WSW 7.4 mph 7.4 mph 94% 0 in
10:26 52.3 °F 50 °F 29.9 in WSW 7.4 mph 7.4 mph 94% 0 in
10:31 52.3 °F 50 °F 29.9 in WSW 7.4 mph 7.4 mph 94% 0 in
10:36 52.3 °F 50 °F 29.9 in WSW 7.4 mph 7.4 mph 94% 0 in
10:41 52.3 °F 50 °F 29.9 in WSW 7.4 mph 7.4 mph 94% 0 in
10:46 52.3 °F 50 °F 29.9 in WSW 7.4 mph 7.4 mph 94% 0 in
10:51 52.3 °F 50 °F 29.9 in WSW 10.7 mph 10.7 mph 94% 0 in
10:56 52.3 °F 50 °F 29.9 in WSW 10.7 mph 10.7 mph 94% 0 in
11:01 52.3 °F 50 °F 29.9 in WSW 10.7 mph 10.7 mph 94% 0 in
11:06 52.3 °F 50 °F 29.9 in West 7.8 mph 7.8 mph 94% 0 in
11:11 52.3 °F 50 °F 29.9 in West 7.8 mph 7.8 mph 94% 0 in
11:16 52.3 °F 50 °F 29.9 in West 7.8 mph 7.8 mph 94% 0 in
11:22 52.3 °F 50 °F 29.9 in West 13 mph 13 mph 94% 0 in
11:27 52.3 °F 50 °F 29.9 in West 13 mph 13 mph 94% 0 in
11:32 52.3 °F 50 °F 29.9 in West 13 mph 13 mph 94% 0 in
11:37 52.3 °F 50 °F 29.9 in West 13 mph 13 mph 94% 0 in
11:42 52.3 °F 50 °F 29.9 in WSW 17.4 mph 17.4 mph 94% 0 in
11:47 52.3 °F 50 °F 29.9 in WSW 13.2 mph 17.4 mph 94% 0 in
11:52 52.3 °F 50 °F 29.9 in WSW 13.2 mph 17.4 mph 94% 0 in
11:57 52.3 °F 50 °F 29.9 in WSW 13.2 mph 17.4 mph 94% 0 in
12:00 52.3 °F 50 °F 29.9 in WSW 13.2 mph 17.4 mph 94% 0 in
12:05 52.3 °F 50 °F 29.9 in WSW 13.2 mph 17.4 mph 94% 0 in
12:10 52.3 °F 50 °F 29.9 in West 13.2 mph 13.2 mph 94% 0 in
12:15 52.3 °F 50 °F 29.9 in West 13.2 mph 13.2 mph 94% 0 in
12:20 52.3 °F 50 °F 29.9 in West 13.2 mph 13.2 mph 94% 0 in
12:25 52.3 °F 50 °F 29.9 in West 13.2 mph 13.2 mph 94% 0 in
12:30 52.3 °F 50 °F 29.9 in WSW 8.7 mph 8.7 mph 94% 0 in
12:35 52.3 °F 50 °F 29.9 in West 14.3 mph 19.5 mph 94% 0 in
12:40 52.3 °F 50 °F 29.9 in West 17.2 mph 19.5 mph 94% 0 in
12:45 52.3 °F 50 °F 29.9 in West 12.8 mph 17.2 mph 94% 0 in
12:50 52.3 °F 50 °F 29.9 in WNW 15.4 mph 17.2 mph 94% 0 in
12:55 52.3 °F 50 °F 29.9 in SSW 19.5 mph 19.5 mph 94% 0 in
13:00 52.3 °F 50 °F 29.9 in WNW 6.3 mph 19.5 mph 94% 0 in
13:05 52.3 °F 50 °F 29.9 in West 9.6 mph 15.2 mph 94% 0 in
13:10 52.3 °F 50 °F 29.9 in West 10.3 mph 17.7 mph 94% 0 in
13:15 52.3 °F 50 °F 29.9 in WNW 15.2 mph 17.7 mph 94% 0 in
13:20 52.3 °F 50 °F 29.9 in SW 15.4 mph 15.4 mph 94% 0 in
13:25 52.3 °F 50 °F 29.9 in SW 15.4 mph 15.4 mph 94% 0 in
13:30 52.3 °F 50 °F 29.9 in WSW 10.5 mph 15.4 mph 94% 0 in
13:36 52.3 °F 50 °F 29.9 in WNW 13.6 mph 17.2 mph 94% 0 in
13:41 52.3 °F 50 °F 29.9 in West 10.5 mph 17.2 mph 94% 0 in
13:46 52.3 °F 50 °F 29.9 in West 10.5 mph 17.2 mph 94% 0 in
13:51 52.3 °F 50 °F 29.9 in West 13.2 mph 13.2 mph 94% 0 in
13:56 52.3 °F 50 °F 29.9 in West 11 mph 13.2 mph 94% 0 in
14:01 52.3 °F 50 °F 29.9 in SSW 12.3 mph 13.2 mph 94% 0 in
14:06 52.3 °F 50 °F 29.9 in WSW 8.7 mph 12.3 mph 94% 0 in
14:11 52.3 °F 50 °F 29.9 in WNW 6 mph 12.3 mph 94% 0 in
14:16 56.5 °F 48.2 °F 29.9 in WNW 8.5 mph 12.8 mph 70% 0 in
14:21 56.5 °F 48.2 °F 29.9 in West 14.5 mph 14.5 mph 70% 0 in
14:26 56.5 °F 48.2 °F 29.9 in West 14.5 mph 14.5 mph 70% 0 in
14:31 56.5 °F 48.2 °F 29.9 in West 14.5 mph 14.5 mph 70% 0 in
14:36 56.5 °F 48.2 °F 29.9 in West 14.5 mph 14.5 mph 70% 0 in
14:41 56.5 °F 48.2 °F 29.9 in West 10.5 mph 10.5 mph 70% 0 in
14:46 56.5 °F 48.2 °F 29.9 in West 8.9 mph 10.5 mph 70% 0 in
14:51 56.5 °F 48.2 °F 29.9 in SSW 13.2 mph 13.2 mph 70% 0 in
14:56 56.5 °F 48.2 °F 29.9 in West 8.1 mph 13.2 mph 70% 0 in
15:01 56.5 °F 48.2 °F 29.9 in West 8.5 mph 13.2 mph 70% 0 in
15:06 56.5 °F 48.2 °F 29.9 in WSW 2 mph 8.5 mph 70% 0 in
15:11 56.5 °F 48.2 °F 29.9 in SW 5.4 mph 8.5 mph 70% 0 in
15:16 56.5 °F 48.2 °F 29.9 in WSW 4.3 mph 6.3 mph 70% 0 in
15:21 56.5 °F 48.2 °F 29.9 in West 3.1 mph 5.8 mph 70% 0 in
15:26 56.5 °F 48.2 °F 29.9 in West 8.1 mph 8.1 mph 70% 0 in
15:29 56.5 °F 48.2 °F 29.9 in West 6 mph 8.1 mph 70% 0 in
15:34 56.5 °F 48.2 °F 29.9 in West 9.6 mph 9.6 mph 70% 0 in
15:39 56.5 °F 48.2 °F 29.9 in West 7.6 mph 9.6 mph 70% 0 in
15:44 56.5 °F 48.2 °F 29.9 in WSW 11 mph 11 mph 70% 0 in
15:49 56.5 °F 48.2 °F 29.9 in NNW 9.6 mph 11 mph 70% 0 in
15:54 56.5 °F 48.2 °F 29.9 in WSW 7.8 mph 11 mph 70% 0 in
15:59 56.5 °F 48.2 °F 29.9 in West 2.9 mph 9.6 mph 70% 0 in
16:04 56.5 °F 48.2 °F 29.9 in West 3.8 mph 7.6 mph 70% 0 in
16:09 56.5 °F 48.2 °F 29.9 in South 6.7 mph 10.5 mph 70% 0 in
16:14 56.5 °F 48.2 °F 29.9 in West 4.3 mph 10.5 mph 70% 0 in
16:19 56.5 °F 48.2 °F 29.9 in NNE 7.6 mph 8.9 mph 70% 0 in
16:24 56.5 °F 48.2 °F 29.9 in West 5.8 mph 11 mph 70% 0 in
16:29 56.5 °F 48.2 °F 29.9 in West 7.4 mph 11 mph 70% 0 in
16:34 56.5 °F 48.2 °F 29.9 in WSW 6.5 mph 7.4 mph 70% 0 in
16:39 56.5 °F 48.2 °F 29.9 in West 3.1 mph 8.1 mph 70% 0 in
16:44 56.5 °F 48.2 °F 29.9 in West 3.1 mph 8.1 mph 70% 0 in
16:49 56.5 °F 48.2 °F 29.9 in West 7.6 mph 8.5 mph 70% 0 in
16:55 56.5 °F 48.2 °F 29.9 in West 7.6 mph 8.5 mph 70% 0.01 in
17:00 56.5 °F 48.2 °F 29.9 in West 7.6 mph 8.5 mph 70% 0.01 in
17:05 56.5 °F 48.2 °F 29.9 in WSW 11 mph 11 mph 70% 0.01 in
17:10 56.5 °F 48.2 °F 29.9 in WSW 11 mph 11 mph 70% 0.01 in
17:15 56.5 °F 48.2 °F 29.9 in West 5.6 mph 5.6 mph 70% 0.01 in
17:20 56.5 °F 48.2 °F 29.9 in WSW 3.8 mph 6.5 mph 70% 0.01 in
17:25 56.5 °F 48.2 °F 29.9 in WSW 5.8 mph 7.4 mph 70% 0.01 in
17:30 56.5 °F 48.2 °F 29.9 in WSW 6.3 mph 7.4 mph 70% 0.01 in
17:35 56.5 °F 48.2 °F 29.9 in WSW 5.6 mph 7.4 mph 70% 0.01 in
17:40 56.5 °F 48.2 °F 29.9 in WSW 5.6 mph 7.4 mph 70% 0.01 in
17:45 50.5 °F 48.2 °F 29.9 in WSW 5.6 mph 5.6 mph 87% 0.01 in
17:50 50.5 °F 48.2 °F 29.9 in WSW 5.6 mph 5.6 mph 87% 0.01 in
17:55 50.5 °F 48.2 °F 29.9 in WSW 5.6 mph 5.6 mph 87% 0 in
18:00 50.5 °F 48.2 °F 29.9 in WSW 5.6 mph 5.6 mph 87% 0 in
18:05 50.5 °F 48.2 °F 29.9 in West 7.2 mph 7.2 mph 87% 0 in
18:10 51.3 °F 48.2 °F 29.9 in SW 5.8 mph 7.2 mph 86% 0 in
18:15 51.3 °F 48.2 °F 29.9 in WSW 3.8 mph 7.2 mph 86% 0 in
18:21 51.4 °F 48.2 °F 29.9 in WSW 5.6 mph 6 mph 85% 0 in
18:26 51.4 °F 48.2 °F 29.9 in WSW 5.4 mph 6 mph 85% 0 in
18:31 51.4 °F 48.2 °F 30 in WSW 5.4 mph 6 mph 85% 0 in
18:36 50.5 °F 46.4 °F 30 in WSW 4.9 mph 5.6 mph 84% 0 in
18:41 50.5 °F 46.4 °F 30 in WSW 5.4 mph 5.6 mph 84% 0 in
18:46 50 °F 46.4 °F 30 in WSW 5.4 mph 5.6 mph 84% 0 in
18:51 50 °F 46.4 °F 30 in WSW 4.5 mph 5.4 mph 84% 0 in
18:56 50 °F 46.4 °F 30 in Calm   4.5 mph 84% 0 in
19:01 50 °F 46.4 °F 30 in Calm   4.5 mph 84% 0 in
19:06 49.5 °F 46.4 °F 30 in Calm     86% 0 in
19:11 49.5 °F 46.4 °F 30 in Calm     86% 0 in
19:16 49.5 °F 46.4 °F 30 in Calm     86% 0 in
19:21 49.5 °F 46.4 °F 30 in Calm     86% 0 in
19:26 49.5 °F 46.4 °F 30 in Calm     86% 0 in
19:31 49.5 °F 46.4 °F 30 in Calm     86% 0 in
19:36 49.5 °F 46.4 °F 30 in Calm   2.2 mph 86% 0 in
19:41 49.5 °F 46.4 °F 30 in Calm   2.2 mph 86% 0 in
19:46 49.5 °F 46.4 °F 29.9 in Calm     86% 0 in
19:51 49.5 °F 46.4 °F 29.9 in Calm     86% 0 in
19:56 49.5 °F 46.4 °F 29.9 in Calm     86% 0 in
19:58 49.5 °F 46.4 °F 29.9 in Calm     86% 0 in
20:03 49.5 °F 46.4 °F 30 in Calm     86% 0 in
20:09 49.5 °F 46.4 °F 30 in Calm     86% 0 in
20:14 49.5 °F 46.4 °F 30 in Calm     86% 0 in
20:19 49.5 °F 46.4 °F 30 in Calm     86% 0 in
20:24 49.5 °F 46.4 °F 30 in Calm     86% 0 in
20:29 49.5 °F 46.4 °F 30 in Calm     86% 0 in
20:34 49.5 °F 46.4 °F 30 in Calm   4.7 mph 86% 0 in
20:39 49.5 °F 46.4 °F 30 in WSW 4.9 mph 5.8 mph 86% 0 in
20:44 49.5 °F 46.4 °F 30 in Calm   5.8 mph 86% 0 in
20:49 49.5 °F 46.4 °F 30 in Calm   4.9 mph 86% 0 in
20:54 49.5 °F 46.4 °F 30 in Calm     86% 0 in
20:59 49.5 °F 46.4 °F 30 in Calm     86% 0 in
21:04 49.5 °F 46.4 °F 30 in Calm     86% 0 in
21:09 49.5 °F 46.4 °F 30 in Calm     86% 0 in
21:14 49.5 °F 46.4 °F 30 in Calm     87% 0 in
21:19 49.5 °F 46.4 °F 30 in SW 6.3 mph 6.3 mph 87% 0 in
21:24 49.5 °F 46.4 °F 30 in Calm   6.3 mph 87% 0 in
21:29 49.5 °F 46.4 °F 30 in Calm   6.3 mph 87% 0 in
21:34 49.3 °F 46.4 °F 30 in Calm     86% 0 in
21:39 48.7 °F 44.6 °F 30 in Calm     85% 0 in
21:44 48.7 °F 44.6 °F 30 in Calm   2.9 mph 85% 0 in
21:49 48.7 °F 44.6 °F 30 in Calm   2.9 mph 85% 0 in
21:54 48.7 °F 44.6 °F 30 in Calm   2.9 mph 85% 0 in
21:59 48.7 °F 44.6 °F 30 in Calm     85% 0 in
22:04 47.3 °F 44.6 °F 30 in West 4 mph 4 mph 86% 0 in
22:09 47.3 °F 44.6 °F 30 in Calm   4 mph 86% 0 in
22:14 47.3 °F 44.6 °F 30 in Calm   4 mph 86% 0 in
22:19 47.3 °F 44.6 °F 30 in West 3.4 mph 3.4 mph 86% 0 in
22:24 47.3 °F 44.6 °F 30 in West 3.4 mph 3.4 mph 86% 0 in
22:29 47.3 °F 44.6 °F 30 in West 3.4 mph 3.4 mph 86% 0 in
22:35 47.3 °F 44.6 °F 30 in West 3.4 mph 3.4 mph 86% 0 in
22:40 47.3 °F 44.6 °F 30 in West 3.4 mph 3.4 mph 86% 0 in
22:45 47.3 °F 44.6 °F 30 in West 3.4 mph 3.4 mph 86% 0 in
22:50 47.3 °F 44.6 °F 30 in West 3.4 mph 3.4 mph 86% 0 in
22:55 47.3 °F 44.6 °F 30 in Calm     86% 0 in
23:00 47.3 °F 44.6 °F 30 in Calm     86% 0 in
23:02 47.3 °F 44.6 °F 30 in Calm     86% 0 in
23:07 47.3 °F 44.6 °F 30 in Calm     86% 0 in
23:12 47.3 °F 44.6 °F 30 in Calm   4 mph 86% 0 in
23:17 47.3 °F 44.6 °F 30 in WNW 3.8 mph 4 mph 86% 0 in
23:22 47.3 °F 44.6 °F 30 in Calm   3.8 mph 86% 0 in
23:27 47.3 °F 44.6 °F 30 in Calm   3.8 mph 86% 0 in
23:33 47.3 °F 44.6 °F 30 in Calm     86% 0 in
23:38 47.3 °F 44.6 °F 30 in Calm   4.7 mph 86% 0 in
23:43 47.3 °F 44.6 °F 30 in Calm   4.7 mph 86% 0 in
23:48 47.3 °F 44.6 °F 30 in Calm   4.3 mph 86% 0 in
23:53 47.3 °F 44.6 °F 30 in Calm   4.3 mph 86% 0 in
23:58 47.3 °F 44.6 °F 30 in Calm   2.9 mph 86% 0 in
Données Historique de Météo Turbie

Mise a jour : 18/06/2018 21:18:13
Généré par Cumulus 1.9.4 (1099)